Terminal Aerodrome Forecast
Issued by NWS

Home | Current Version | Previous Version | Text Only | Print | Product List | Glossary On
Versions: 1 2 3 4 5 6 7 8 9 10 11 12 13 14 15 16 17 18 19 20 21 22 23 24 25 26 27 28 29 30 31 32 33 34 35 36 37 38 39 40 41 42 43 44 45 46 47 48 49 50
000
FTUS43 KMKX 211146
TAFENW
TAF
KENW 211146Z 2112/2212 VRB03KT P6SM SCT008 BKN100
      TEMPO 2112/2114 BKN008
     FM211600 19007KT P6SM VCTS BKN035CB BKN060
     FM212200 17007KT P6SM +TSRA BKN030CB
     FM220400 15004KT 5SM SHRA BKN030
     FM220600 19005KT 2SM SHRA BKN015 BKN060
     FM220800 17006KT 1SM BR BKN010=

USA.gov is the U.S. government's official web portal to all federal, state and local government web resources and services.